Location: Cowley
(49.5667°N, 114.0667°W)
Time: 12:14:15
(UTC+00:00)

Envisat - Pass Details

Date: 09 December 2021
Orbit: 764 x 766 km, 98.2° (Epoch: 25 January)

Event Time Altitude Azimuth Distance (km) Brightness Sun altitude
Rises 00:21:20 0° 189° (S) 3,220 6.8 -7.0°
Reaches altitude 10° 00:23:48 10° 198° (SSW) 2,299 6.2 -7.4°
Maximum altitude 00:28:26 35° 264° (W) 1,217 4.8 -8.1°
Drops below altitude 10° 00:33:07 10° 330° (NNW) 2,315 5.6 -8.7°
Sets 00:35:37 0° 340° (NNW) 3,247 6.2 -9.1°
